| time (UTC) | temp F | wind direction | speed MPH | gust MPH | rain 1hr in | rain 24hr in | rain mn in | humidity % | barometer mb |
| 20260506221553 | 73 | 20 | 6.0 | 15.0 | 0.00 | 0.00 | 0.00 | 57 | 1008.9 |
| 20260506221532 | 73 | 13 | 7.0 | 15.0 | 0.00 | 0.00 | 0.00 | 69 | 1008.6 |
| 20260506220056 | 77 | 262 | 5.0 | 16.0 | 0.00 | 0.00 | 0.00 | 56 | 1008.7 |
| 20260506220032 | 77 | 269 | 6.0 | 16.0 | 0.00 | 0.00 | 0.00 | 68 | 1008.5 |
| 20260506214556 | 79 | 22 | 3.0 | 11.0 | 0.00 | 0.00 | 0.00 | 56 | 1008.1 |
| 20260506214530 | 79 | 29 | 3.0 | 9.0 | 0.00 | 0.00 | 0.00 | 68 | 1007.9 |
| 20260506213057 | 80 | 330 | 2.0 | 7.0 | 0.00 | 0.00 | 0.00 | 55 | 1008.1 |
| 20260506213030 | 80 | 329 | 3.0 | 6.0 | 0.00 | 0.00 | 0.00 | 67 | 1007.9 |
| 20260506211557 | 81 | 319 | 1.0 | 4.0 | 0.00 | 0.00 | 0.00 | 54 | 1008.2 |
| 20260506211538 | 81 | 313 | 2.0 | 5.0 | 0.00 | 0.00 | 0.00 | 66 | 1007.9 |
| 20260506210059 | 82 | 102 | 0.0 | 2.0 | 0.00 | 0.00 | 0.00 | 54 | 1008.3 |
| 20260506210033 | 82 | 102 | 0.0 | 2.0 | 0.00 | 0.00 | 0.00 | 65 | 1008.1 |
| 20260506204559 | 82 | 0 | 0.0 | 6.0 | 0.00 | 0.00 | 0.00 | 53 | 1008.5 |
| 20260506204527 | 82 | 103 | 0.0 | 6.0 | 0.00 | 0.00 | 0.00 | 65 | 1008.2 |
| 20260506203054 | 82 | 0 | 0.0 | 6.0 | 0.00 | 0.00 | 0.00 | 53 | 1008.5 |
| 20260506203030 | 82 | 105 | 1.0 | 6.0 | 0.00 | 0.00 | 0.00 | 65 | 1008.2 |
| 20260506201556 | 81 | 336 | 2.0 | 5.0 | 0.00 | 0.00 | 0.00 | 54 | 1008.4 |
| 20260506201533 | 81 | 338 | 1.0 | 5.0 | 0.00 | 0.00 | 0.00 | 66 | 1008.1 |
| 20260506200057 | 80 | 331 | 0.0 | 6.0 | 0.00 | 0.00 | 0.00 | 56 | 1008.3 |
| 20260506200023 | 80 | 360 | 0.0 | 6.0 | 0.00 | 0.00 | 0.00 | 67 | 1008.1 |
| 20260506194553 | 79 | 360 | 2.0 | 8.0 | 0.00 | 0.00 | 0.00 | 55 | 1008.4 |
| 20260506194528 | 79 | 360 | 3.0 | 8.0 | 0.00 | 0.00 | 0.00 | 66 | 1008.1 |
| 20260506193058 | 79 | 360 | 3.0 | 9.0 | 0.00 | 0.00 | 0.00 | 54 | 1008.6 |
| 20260506193021 | 79 | 360 | 3.0 | 8.0 | 0.00 | 0.00 | 0.00 | 66 | 1008.4 |
| 20260506191554 | 81 | 132 | 3.0 | 7.0 | 0.00 | 0.00 | 0.00 | 54 | 1008.7 |
| 20260506191521 | 81 | 130 | 2.0 | 7.0 | 0.00 | 0.00 | 0.00 | 65 | 1008.5 |
| 20260506190054 | 81 | 137 | 2.0 | 7.0 | 0.00 | 0.00 | 0.00 | 52 | 1008.9 |
| 20260506190020 | 81 | 136 | 1.0 | 7.0 | 0.00 | 0.00 | 0.00 | 64 | 1008.7 |
| 20260506184554 | 81 | 144 | 4.0 | 7.0 | 0.00 | 0.00 | 0.00 | 52 | 1009.3 |
| 20260506184518 | 81 | 146 | 4.0 | 7.0 | 0.00 | 0.00 | 0.00 | 63 | 1009.1 |
| 20260506183057 | 81 | 167 | 3.0 | 6.0 | 0.00 | 0.00 | 0.00 | 52 | 1009.7 |
| 20260506183027 | 81 | 171 | 3.0 | 6.0 | 0.00 | 0.00 | 0.00 | 63 | 1009.4 |
| 20260506181554 | 80 | 0 | 2.0 | 5.0 | 0.00 | 0.00 | 0.00 | 52 | 1010.0 |
| 20260506181513 | 80 | 198 | 1.0 | 5.0 | 0.00 | 0.00 | 0.00 | 64 | 1009.9 |
| 20260506180054 | 80 | 201 | 0.0 | 4.0 | 0.00 | 0.00 | 0.00 | 52 | 1010.5 |
| 20260506180014 | 80 | 205 | 0.0 | 4.0 | 0.00 | 0.00 | 0.00 | 63 | 1010.3 |
| 20260506174558 | 79 | 215 | 0.0 | 4.0 | 0.00 | 0.00 | 0.00 | 51 | 1010.8 |
| 20260506174512 | 79 | 215 | 0.0 | 4.0 | 0.00 | 0.00 | 0.00 | 63 | 1010.7 |
| 20260506173122 | 79 | 0 | 1.0 | 6.0 | 0.00 | 0.00 | 0.00 | 52 | 1011.2 |
| 20260506173010 | 79 | 175 | 1.0 | 5.0 | 0.00 | 0.00 | 0.00 | 63 | 1010.8 |
| 20260506171556 | 79 | 176 | 2.0 | 6.0 | 0.00 | 0.00 | 0.00 | 52 | 1011.4 |
| 20260506171510 | 79 | 176 | 2.0 | 5.0 | 0.00 | 0.00 | 0.00 | 63 | 1011.0 |
| 20260506170058 | 79 | 185 | 2.0 | 4.0 | 0.00 | 0.00 | 0.00 | 52 | 1011.3 |
| 20260506170008 | 79 | 185 | 2.0 | 4.0 | 0.00 | 0.00 | 0.00 | 63 | 1010.9 |
| 20260506164556 | 78 | 184 | 3.0 | 6.0 | 0.00 | 0.00 | 0.00 | 52 | 1011.2 |
| 20260506164507 | 78 | 184 | 3.0 | 6.0 | 0.00 | 0.00 | 0.00 | 63 | 1010.9 |
| 20260506163104 | 78 | 198 | 3.0 | 6.0 | 0.00 | 0.00 | 0.00 | 51 | 1011.0 |
| 20260506163006 | 78 | 198 | 3.0 | 6.0 | 0.00 | 0.00 | 0.00 | 62 | 1010.7 |
| 20260506161603 | 78 | 173 | 5.0 | 9.0 | 0.00 | 0.00 | 0.00 | 51 | 1010.8 |
| 20260506161507 | 78 | 171 | 4.0 | 8.0 | 0.00 | 0.00 | 0.00 | 62 | 1010.5 |
| 20260506160052 | 78 | 0 | 2.0 | 7.0 | 0.00 | 0.00 | 0.00 | 51 | 1010.8 |
| 20260506160003 | 78 | 211 | 2.0 | 7.0 | 0.00 | 0.00 | 0.00 | 62 | 1010.5 |
| 20260506154606 | 78 | 184 | 1.0 | 4.0 | 0.00 | 0.00 | 0.00 | 62 | 1010.4 |
| 20260506154600 | 78 | 184 | 2.0 | 4.0 | 0.00 | 0.00 | 0.00 | 50 | 1010.7 |
| 20260506153058 | 77 | 178 | 2.0 | 9.0 | 0.00 | 0.00 | 0.00 | 62 | 1010.4 |
| 20260506153054 | 77 | 178 | 2.0 | 9.0 | 0.00 | 0.00 | 0.00 | 50 | 1010.7 |
| 20260506151556 | 77 | 188 | 2.0 | 5.0 | 0.00 | 0.00 | 0.00 | 62 | 1010.3 |
| 20260506151553 | 77 | 188 | 2.0 | 5.0 | 0.00 | 0.00 | 0.00 | 50 | 1010.5 |
| 20260506150056 | 77 | 190 | 3.0 | 9.0 | 0.00 | 0.00 | 0.00 | 61 | 1010.1 |
| 20260506144609 | 77 | 155 | 4.0 | 7.0 | 0.00 | 0.00 | 0.00 | 49 | 1010.1 |
| 20260506144605 | 77 | 155 | 3.0 | 6.0 | 0.00 | 0.00 | 0.00 | 61 | 1009.9 |
| 20260506143057 | 77 | 176 | 2.0 | 5.0 | 0.00 | 0.00 | 0.00 | 60 | 1009.8 |
| 20260506141553 | 76 | 172 | 1.0 | 5.0 | 0.00 | 0.00 | 0.00 | 48 | 1009.9 |
| 20260506141551 | 76 | 172 | 0.0 | 4.0 | 0.00 | 0.00 | 0.00 | 59 | 1009.8 |
| 20260506140105 | 76 | 165 | 2.0 | 9.0 | 0.00 | 0.00 | 0.00 | 48 | 1009.9 |
| 20260506140050 | 76 | 165 | 2.0 | 8.0 | 0.00 | 0.00 | 0.00 | 60 | 1009.7 |
| 20260506134555 | 76 | 194 | 2.0 | 6.0 | 0.00 | 0.00 | 0.00 | 48 | 1009.8 |
| 20260506134549 | 76 | 194 | 2.0 | 6.0 | 0.00 | 0.00 | 0.00 | 60 | 1009.7 |
| 20260506133116 | 76 | 157 | 0.0 | 7.0 | 0.00 | 0.00 | 0.00 | 48 | 1009.9 |
| 20260506133051 | 76 | 157 | 0.0 | 5.0 | 0.00 | 0.00 | 0.00 | 59 | 1009.7 |
| 20260506131555 | 75 | 194 | 2.0 | 6.0 | 0.00 | 0.00 | 0.00 | 48 | 1009.7 |
| 20260506131546 | 75 | 194 | 2.0 | 5.0 | 0.00 | 0.00 | 0.00 | 59 | 1009.5 |
| 20260506130136 | 75 | 0 | 2.0 | 8.0 | 0.00 | 0.00 | 0.00 | 48 | 1009.7 |
| 20260506130056 | 75 | 182 | 1.0 | 6.0 | 0.00 | 0.00 | 0.00 | 59 | 1009.6 |
| 20260506124557 | 74 | 188 | 1.0 | 4.0 | 0.00 | 0.00 | 0.00 | 48 | 1009.4 |
| 20260506124543 | 74 | 185 | 1.0 | 5.0 | 0.00 | 0.00 | 0.00 | 60 | 1009.3 |
| 20260506123055 | 74 | 360 | 1.0 | 4.0 | 0.00 | 0.00 | 0.00 | 49 | 1009.2 |
| 20260506123041 | 74 | 360 | 1.0 | 4.0 | 0.00 | 0.00 | 0.00 | 60 | 1009.1 |
| 20260506121556 | 73 | 203 | 1.0 | 5.0 | 0.00 | 0.00 | 0.00 | 48 | 1009.2 |
| 20260506121540 | 73 | 204 | 1.0 | 5.0 | 0.00 | 0.00 | 0.00 | 60 | 1009.1 |
| 20260506120100 | 73 | 205 | 1.0 | 3.0 | 0.00 | 0.00 | 0.00 | 49 | 1009.0 |
| 20260506120043 | 73 | 205 | 1.0 | 3.0 | 0.00 | 0.00 | 0.00 | 60 | 1009.0 |
| 20260506114607 | 73 | 202 | 1.0 | 5.0 | 0.00 | 0.00 | 0.00 | 49 | 1008.9 |
| 20260506114538 | 73 | 202 | 1.0 | 5.0 | 0.00 | 0.00 | 0.00 | 61 | 1008.8 |
| 20260506113056 | 73 | 195 | 0.0 | 6.0 | 0.00 | 0.00 | 0.00 | 50 | 1008.7 |
| 20260506113037 | 73 | 195 | 1.0 | 6.0 | 0.00 | 0.00 | 0.00 | 61 | 1008.6 |
| 20260506111558 | 73 | 0 | 0.0 | 3.0 | 0.00 | 0.00 | 0.00 | 50 | 1008.6 |
| 20260506111535 | 73 | 177 | 0.0 | 3.0 | 0.00 | 0.00 | 0.00 | 61 | 1008.4 |
| 20260506110057 | 73 | 0 | 0.0 | 5.0 | 0.00 | 0.00 | 0.00 | 50 | 1008.4 |
| 20260506110035 | 73 | 177 | 0.0 | 3.0 | 0.00 | 0.00 | 0.00 | 61 | 1008.3 |
| 20260506104603 | 73 | 202 | 2.0 | 6.0 | 0.00 | 0.00 | 0.00 | 49 | 1008.4 |
| 20260506104535 | 73 | 211 | 2.0 | 6.0 | 0.00 | 0.00 | 0.00 | 61 | 1008.2 |
| 20260506103105 | 73 | 196 | 1.0 | 6.0 | 0.00 | 0.00 | 0.00 | 50 | 1008.4 |
| 20260506103044 | 73 | 192 | 2.0 | 5.0 | 0.00 | 0.00 | 0.00 | 61 | 1008.3 |
| 20260506101553 | 73 | 180 | 2.0 | 8.0 | 0.00 | 0.00 | 0.00 | 50 | 1008.3 |
| 20260506101532 | 73 | 180 | 1.0 | 7.0 | 0.00 | 0.00 | 0.00 | 62 | 1008.2 |
| 20260506100107 | 73 | 182 | 1.0 | 5.0 | 0.00 | 0.00 | 0.00 | 51 | 1008.1 |
| 20260506100032 | 73 | 182 | 1.0 | 5.0 | 0.00 | 0.00 | 0.00 | 63 | 1008.0 |
| 20260506094604 | 74 | 0 | 2.0 | 7.0 | 0.00 | 0.00 | 0.00 | 51 | 1008.3 |
| 20260506094533 | 74 | 217 | 2.0 | 6.0 | 0.00 | 0.00 | 0.00 | 63 | 1008.0 |
| 20260506093055 | 74 | 0 | 2.0 | 6.0 | 0.00 | 0.00 | 0.00 | 52 | 1008.1 |
| 20260506093028 | 74 | 165 | 2.0 | 6.0 | 0.00 | 0.00 | 0.00 | 63 | 1008.0 |
| 20260506091558 | 74 | 183 | 2.0 | 9.0 | 0.00 | 0.00 | 0.00 | 52 | 1008.2 |
| 20260506091531 | 74 | 183 | 1.0 | 9.0 | 0.00 | 0.00 | 0.00 | 64 | 1008.0 |
| 20260506090054 | 74 | 190 | 3.0 | 8.0 | 0.00 | 0.00 | 0.00 | 52 | 1008.1 |
| 20260506090041 | 74 | 192 | 3.0 | 7.0 | 0.00 | 0.00 | 0.00 | 64 | 1008.0 |
| 20260506084600 | 74 | 157 | 1.0 | 7.0 | 0.00 | 0.00 | 0.00 | 52 | 1008.1 |
| 20260506084526 | 74 | 176 | 1.0 | 5.0 | 0.00 | 0.00 | 0.00 | 64 | 1008.0 |
| 20260506083057 | 74 | 0 | 2.0 | 11.0 | 0.00 | 0.00 | 0.00 | 52 | 1008.2 |
| 20260506083026 | 74 | 183 | 2.0 | 11.0 | 0.00 | 0.00 | 0.00 | 64 | 1008.0 |
| 20260506081605 | 74 | 158 | 3.0 | 9.0 | 0.00 | 0.00 | 0.00 | 53 | 1008.0 |
| 20260506081524 | 74 | 191 | 2.0 | 8.0 | 0.00 | 0.00 | 0.00 | 64 | 1007.9 |
| 20260506073053 | 74 | 131 | 4.0 | 11.0 | 0.00 | 0.00 | 0.00 | 54 | 1008.1 |
| 20260506073021 | 74 | 191 | 2.0 | 11.0 | 0.00 | 0.00 | 0.00 | 65 | 1008.2 |
| 20260506071558 | 75 | 178 | 2.0 | 6.0 | 0.00 | 0.00 | 0.00 | 54 | 1008.6 |
| 20260506071519 | 75 | 178 | 2.0 | 6.0 | 0.00 | 0.00 | 0.00 | 65 | 1008.4 |
| 20260506061553 | 75 | 161 | 2.0 | 9.0 | 0.00 | 0.00 | 0.00 | 53 | 1008.7 |
| 20260506061524 | 75 | 161 | 2.0 | 9.0 | 0.00 | 0.00 | 0.00 | 65 | 1008.5 |
| 20260506050107 | 75 | 194 | 4.0 | 11.0 | 0.00 | 0.00 | 0.00 | 66 | 1007.9 |
| 20260506044555 | 75 | 178 | 5.0 | 12.0 | 0.00 | 0.00 | 0.00 | 55 | 1008.1 |
| 20260506044552 | 75 | 195 | 7.0 | 10.0 | 0.00 | 0.00 | 0.00 | 67 | 1008.0 |
| 20260506043056 | 75 | 194 | 4.0 | 10.0 | 0.00 | 0.00 | 0.00 | 56 | 1008.2 |
| 20260506043054 | 75 | 194 | 4.0 | 10.0 | 0.00 | 0.00 | 0.00 | 67 | 1008.2 |
| 20260506041553 | 75 | 205 | 6.0 | 14.0 | 0.00 | 0.00 | 0.00 | 56 | 1008.2 |
| 20260506041551 | 75 | 205 | 4.0 | 13.0 | 0.00 | 0.00 | 0.00 | 67 | 1008.0 |
| 20260506040058 | 76 | 166 | 2.0 | 11.0 | 0.00 | 0.00 | 0.00 | 56 | 1008.1 |
| 20260506040056 | 76 | 167 | 3.0 | 10.0 | 0.00 | 0.00 | 0.00 | 67 | 1007.9 |
| 20260506034612 | 76 | 194 | 5.0 | 13.0 | 0.00 | 0.00 | 0.00 | 56 | 1007.9 |
| 20260506034551 | 76 | 192 | 5.0 | 13.0 | 0.00 | 0.00 | 0.00 | 67 | 1007.8 |
| 20260506033054 | 76 | 206 | 4.0 | 10.0 | 0.00 | 0.00 | 0.00 | 55 | 1008.1 |
| 20260506033049 | 76 | 210 | 5.0 | 10.0 | 0.00 | 0.00 | 0.00 | 67 | 1008.0 |
| 20260506031556 | 76 | 240 | 4.0 | 11.0 | 0.00 | 0.00 | 0.00 | 55 | 1007.9 |
| 20260506031551 | 76 | 239 | 4.0 | 10.0 | 0.00 | 0.00 | 0.00 | 67 | 1007.8 |
| 20260506030054 | 76 | 184 | 4.0 | 9.0 | 0.00 | 0.00 | 0.00 | 56 | 1007.6 |
| 20260506024556 | 76 | 195 | 6.0 | 14.0 | 0.00 | 0.00 | 0.00 | 55 | 1007.3 |
| 20260506023101 | 76 | 185 | 4.0 | 10.0 | 0.00 | 0.00 | 0.00 | 56 | 1007.0 |
| 20260506023046 | 76 | 185 | 5.0 | 8.0 | 0.00 | 0.00 | 0.00 | 67 | 1006.7 |
| 20260506021559 | 76 | 204 | 5.0 | 10.0 | 0.00 | 0.00 | 0.00 | 67 | 1006.7 |
| 20260506021553 | 76 | 204 | 5.0 | 11.0 | 0.00 | 0.00 | 0.00 | 56 | 1006.9 |
| 20260506020056 | 76 | 196 | 4.0 | 9.0 | 0.00 | 0.00 | 0.00 | 56 | 1006.9 |
| 20260506020045 | 76 | 196 | 3.0 | 9.0 | 0.00 | 0.00 | 0.00 | 67 | 1006.6 |
| 20260506014554 | 77 | 170 | 3.0 | 10.0 | 0.00 | 0.00 | 0.00 | 56 | 1006.5 |
| 20260506014544 | 77 | 171 | 3.0 | 10.0 | 0.00 | 0.00 | 0.00 | 68 | 1006.3 |
| 20260506013108 | 77 | 186 | 3.0 | 11.0 | 0.00 | 0.00 | 0.00 | 56 | 1006.4 |
| 20260506013053 | 77 | 184 | 3.0 | 10.0 | 0.00 | 0.00 | 0.00 | 68 | 1006.1 |
| 20260506011559 | 77 | 184 | 4.0 | 9.0 | 0.00 | 0.00 | 0.00 | 57 | 1006.2 |
| 20260506011552 | 77 | 184 | 4.0 | 7.0 | 0.00 | 0.00 | 0.00 | 69 | 1005.9 |
| 20260506010119 | 77 | 196 | 5.0 | 10.0 | 0.00 | 0.00 | 0.00 | 58 | 1005.9 |
| 20260506010042 | 77 | 200 | 5.0 | 10.0 | 0.00 | 0.00 | 0.00 | 70 | 1005.7 |
| 20260506004553 | 78 | 207 | 4.0 | 10.0 | 0.00 | 0.00 | 0.00 | 59 | 1005.7 |
| 20260506004541 | 78 | 207 | 4.0 | 8.0 | 0.00 | 0.00 | 0.00 | 70 | 1005.4 |
| 20260506003051 | 78 | 194 | 5.0 | 14.0 | 0.00 | 0.00 | 0.00 | 59 | 1005.5 |
| 20260506003041 | 78 | 196 | 5.0 | 14.0 | 0.00 | 0.00 | 0.00 | 70 | 1005.1 |
| 20260506001602 | 79 | 185 | 5.0 | 12.0 | 0.00 | 0.00 | 0.00 | 59 | 1005.5 |
| 20260506001543 | 79 | 185 | 6.0 | 11.0 | 0.00 | 0.00 | 0.00 | 70 | 1005.2 |
| 20260506000055 | 80 | 178 | 5.0 | 12.0 | 0.00 | 0.00 | 0.00 | 58 | 1005.6 |
| 20260506000045 | 80 | 171 | 6.0 | 11.0 | 0.00 | 0.00 | 0.00 | 70 | 1005.2 |
| 20260505234555 | 80 | 185 | 4.0 | 15.0 | 0.00 | 0.00 | 0.00 | 57 | 1005.6 |
| 20260505234539 | 80 | 152 | 5.0 | 9.0 | 0.00 | 0.00 | 0.00 | 69 | 1005.3 |
| 20260505233139 | 80 | 196 | 6.0 | 10.0 | 0.00 | 0.00 | 0.00 | 69 | 1005.3 |
| 20260505233105 | 80 | 176 | 6.0 | 11.0 | 0.00 | 0.00 | 0.00 | 57 | 1005.6 |
| 20260505231558 | 81 | 175 | 4.0 | 12.0 | 0.00 | 0.00 | 0.00 | 57 | 1005.7 |
| 20260505231550 | 81 | 158 | 4.0 | 11.0 | 0.00 | 0.00 | 0.00 | 68 | 1005.3 |
| 20260505230056 | 81 | 193 | 6.0 | 13.0 | 0.00 | 0.00 | 0.00 | 56 | 1005.8 |
| 20260505230038 | 81 | 201 | 5.0 | 13.0 | 0.00 | 0.00 | 0.00 | 68 | 1005.5 |
| 20260505224554 | 81 | 204 | 7.0 | 15.0 | 0.00 | 0.00 | 0.00 | 55 | 1005.8 |
| 20260505224537 | 82 | 150 | 6.0 | 14.0 | 0.00 | 0.00 | 0.00 | 67 | 1005.4 |
| 20260505223054 | 82 | 175 | 4.0 | 12.0 | 0.00 | 0.00 | 0.00 | 55 | 1005.7 |
| 20260505223036 | 82 | 175 | 5.0 | 10.0 | 0.00 | 0.00 | 0.00 | 66 | 1005.4 |